TimePDT,TemperatureF,Dew PointF,Humidity,Sea Level PressureIn,VisibilityMPH,Wind Direction,Wind SpeedMPH,Gust SpeedMPH,PrecipitationIn,Events,Conditions,WindDirDegrees,DateUTC
12:33 AM,48.2,42.8,82,30.00,10.0,WSW,6.9,-,N/A,,Mostly Cloudy,250,2013-03-26 07:33:00
12:54 AM,46.9,43.0,86,29.97,10.0,WSW,10.4,-,N/A,,Mostly Cloudy,250,2013-03-26 07:54:00
1:16 AM,46.4,42.8,87,30.00,10.0,WSW,10.4,-,N/A,,Scattered Clouds,250,2013-03-26 08:16:00
1:54 AM,46.0,42.1,86,29.97,10.0,West,6.9,-,N/A,,Partly Cloudy,270,2013-03-26 08:54:00
2:54 AM,46.0,42.1,86,29.96,10.0,West,10.4,-,N/A,,Clear,260,2013-03-26 09:54:00
3:54 AM,46.0,43.0,89,29.95,10.0,West,9.2,-,N/A,,Partly Cloudy,270,2013-03-26 10:54:00
4:39 AM,44.6,42.8,93,29.98,10.0,West,6.9,-,N/A,,Mostly Cloudy,260,2013-03-26 11:39:00
4:54 AM,46.0,43.0,89,29.95,10.0,WSW,6.9,-,N/A,,Overcast,250,2013-03-26 11:54:00
5:28 AM,44.6,42.8,93,29.98,10.0,West,6.9,-,N/A,,Scattered Clouds,260,2013-03-26 12:28:00
5:54 AM,45.0,42.1,90,29.96,10.0,West,6.9,-,N/A,,Clear,260,2013-03-26 12:54:00
6:54 AM,43.0,39.9,89,29.96,10.0,WNW,5.8,-,N/A,,Scattered Clouds,290,2013-03-26 13:54:00
7:54 AM,46.0,42.1,86,29.98,10.0,West,4.6,-,N/A,,Overcast,260,2013-03-26 14:54:00
8:54 AM,48.0,44.1,86,29.98,10.0,West,6.9,-,N/A,,Partly Cloudy,270,2013-03-26 15:54:00
9:54 AM,52.0,44.1,74,29.98,10.0,West,5.8,-,N/A,,Scattered Clouds,270,2013-03-26 16:54:00
10:54 AM,54.0,44.1,69,29.99,10.0,SSW,5.8,-,N/A,,Clear,210,2013-03-26 17:54:00
11:54 AM,57.9,46.0,65,29.98,10.0,SW,4.6,-,N/A,,Clear,230,2013-03-26 18:54:00
12:54 PM,60.1,46.9,62,29.97,10.0,South,8.1,-,N/A,,Partly Cloudy,190,2013-03-26 19:54:00
1:54 PM,62.1,48.0,60,29.96,10.0,SSW,6.9,-,N/A,,Mostly Cloudy,210,2013-03-26 20:54:00
2:54 PM,62.1,48.0,60,29.94,10.0,SSW,6.9,-,N/A,,Clear,200,2013-03-26 21:54:00
3:54 PM,64.0,48.9,58,29.93,10.0,SSW,10.4,-,N/A,,Clear,210,2013-03-26 22:54:00
4:54 PM,64.0,50.0,60,29.92,10.0,SW,6.9,-,N/A,,Clear,220,2013-03-26 23:54:00
5:54 PM,62.1,50.0,65,29.91,10.0,WSW,9.2,-,N/A,,Clear,240,2013-03-27 00:54:00
6:54 PM,57.0,45.0,64,29.91,10.0,West,11.5,-,N/A,,Clear,270,2013-03-27 01:54:00
7:54 PM,53.1,44.1,71,29.92,10.0,West,13.8,-,N/A,,Clear,260,2013-03-27 02:54:00
8:54 PM,51.1,43.0,74,29.94,10.0,WSW,11.5,20.7,N/A,,Overcast,240,2013-03-27 03:54:00
9:54 PM,50.0,44.1,80,29.95,10.0,West,6.9,-,N/A,,Clear,270,2013-03-27 04:54:00
10:54 PM,48.9,43.0,80,29.95,10.0,Calm,Calm,-,N/A,,Clear,0,2013-03-27 05:54:00
11:54 PM,46.9,42.1,83,29.95,10.0,WSW,4.6,-,N/A,,Clear,240,2013-03-27 06:54:00